星链-32594 (STARLINK-32594)

导读

STARLINK-32594是美国SpaceX公司星链(Starlink)卫星互联网项目的一员,于2024年12月13日发射入轨。星链项目计划在近地轨道部署数万颗卫星,旨在为全球偏远、缺乏传统基础设施的地区提供低延迟、高速的宽带互联网接入服务。作为星链星座的组成部分,STARLINK-32594将助力扩展全球网络覆盖,推动卫星互联网服务的普及,但也引发了天文观测等领域对空间碎片问题的关注。

Basic Information
目录编号:
62302
目录名称:
STARLINK-32594
国际标识:
2024-239B
轨道中心:
EARTH
卫星名称:
星链-32594
卫星全名:
星链-32594 (STARLINK-32594)
卫星状态:
在轨 (已飞行630 天)
发射日期:
2024-12-13 UTC
国别 :
美国 (US)
星等 :
--
Orbit Information
数据来源 国际轨道数据 AOE轨道数据
星历时间 2026-09-03T20:54:16+0800
17小时前
查看轨道信息
2026-09-03T01:00:00+0800
1天前
查看轨道信息
半长轴 6840.876km 6840.868km
偏心率 0.0001078 0.0001127
轨道倾角 53.160° 53.159°
近地点辐角 78.729° 78.540°
升交点赤经 82.690° 86.565°
平近点角 281.383° 17.839°
近地点 462.001km 461.96km
远地点 463.477km 463.502km
周期 93.848分钟 93.848分钟
每日圈数 15.343883 15.343909
Detailed Information
固有亮度:
5
最大亮度:
2.5
卫星平台:
Starlink V1.0
覆盖范围:
全球
运营商:
太空探索技术公司
运营商所在国:
美国
制造商(研发单位):
太空探索技术公司
制造商所在国:
美国
使用方式:
暂无
Satellite Introduction
Starlink 计划是 SpaceX 推出的全球卫星互联网项目,通过发射低轨道卫星,为全球尤其是偏远地区提供高速、低延迟的互联网服务。自 2019 年起,Starlink 已部署数千颗卫星,旨在缩小全球数字鸿沟,推动互联网普及。该项目还为军事、航空等行业提供通信支持,带来广泛经济效益。
2D Orbit Map
3D Orbit Map
Orbit Altitude Analysis Chart
Orbit Inclination Analysis Chart
Orbit Comprehensive Analysis Chart
View Comprehensive Chart